This is the latest recevied weather packets stored in our database for station/object KO4LFZ. If no packets are shown the sender has not sent any weather packets the latest 10 day(s).
| Time | Temp. | Humidity | Pressure | Rain* | Wind** | Luminosity | Snow |
|---|---|---|---|---|---|---|---|
| 1778167141 | 15.56° C | 53% | 1017.6 hPa | 0 mm | - | 756 W/m² | - |
| 1778166837 | 15.56° C | 56% | 1017.3 hPa | 0 mm | - | 763 W/m² | - |
| 1778166534 | 15.56° C | 53% | 1017.9 hPa | 0 mm | - | 744 W/m² | - |
| 1778166231 | 15.56° C | 55% | 1017.7 hPa | 0 mm | - | 747 W/m² | - |
| 1778165927 | 15° C | 55% | 1017.6 hPa | 0 mm | - | 731 W/m² | - |
| 1778165623 | 15.56° C | 58% | 1017.6 hPa | 0 mm | - | 729 W/m² | - |
| 1778165321 | 15° C | 59% | 1017.8 hPa | 0 mm | - | 708 W/m² | - |
| 1778165017 | 15° C | 56% | 1017.4 hPa | 0 mm | - | 691 W/m² | - |
| 1778164714 | 15° C | 55% | 1018 hPa | 0 mm | - | 672 W/m² | - |
| 1778164411 | 14.44° C | 57% | 1017.7 hPa | 0 mm | - | 652 W/m² | - |
| 1778164107 | 15° C | 63% | 1017.8 hPa | 0 mm | - | 645 W/m² | - |
| 1778163798 | 14.44° C | 61% | 1017.6 hPa | 0 mm | - | 614 W/m² | - |
| 1778163494 | 13.89° C | 61% | 1017.7 hPa | 0 mm | - | 589 W/m² | - |
| 1778163186 | 13.89° C | 62% | 1017.6 hPa | 0 mm | - | 572 W/m² | - |
| 1778162882 | 14.44° C | 65% | 1018 hPa | 0 mm | - | 551 W/m² | - |
| 1778162580 | 13.89° C | 67% | 1017.8 hPa | 0 mm | - | 528 W/m² | - |
| 1778162277 | 13.33° C | 68% | 1018 hPa | 0 mm | - | 510 W/m² | - |
| 1778161974 | 13.33° C | 67% | 1017.6 hPa | 0 mm | - | 491 W/m² | - |
| 1778161670 | 13.33° C | 68% | 1017.6 hPa | 0 mm | - | 451 W/m² | - |
| 1778161367 | 12.78° C | 71% | 1017.7 hPa | 0 mm | - | 445 W/m² | - |
| 1778161063 | 12.78° C | 72% | 1017.8 hPa | 0 mm | - | 413 W/m² | - |
| 1778160759 | 12.22° C | 74% | 1018 hPa | 0 mm | - | 384 W/m² | - |
| 1778160457 | 12.22° C | 75% | 1017.8 hPa | 0 mm | - | 368 W/m² | - |
| 1778160154 | 11.67° C | 77% | 1017.3 hPa | 0 mm | - | 331 W/m² | - |
| 1778159851 | 11.67° C | 76% | 1017.4 hPa | 0 mm | - | 311 W/m² | - |
* Rain latest hour (hover to see other rain measurements)
** Current wind speed in m/s (hover to see current wind gust speed)